TimeEDT,TemperatureF,Dew PointF,Humidity,Sea Level PressureIn,VisibilityMPH,Wind Direction,Wind SpeedMPH,Gust SpeedMPH,PrecipitationIn,Events,Conditions,WindDirDegrees,DateUTC
12:10 AM,37.0,29.8,75,30.11,10.0,NNW,9.2,-,N/A,,Overcast,330,2014-03-09 05:10:00
12:30 AM,36.5,29.1,75,30.11,10.0,NNW,10.4,-,N/A,,Overcast,340,2014-03-09 05:30:00
12:50 AM,36.0,28.6,75,30.12,10.0,NNW,8.1,-,N/A,,Overcast,340,2014-03-09 05:50:00
1:10 AM,35.6,28.6,76,30.12,10.0,NNW,3.5,-,N/A,,Overcast,330,2014-03-09 06:10:00
1:30 AM,35.4,28.2,75,30.13,10.0,NNW,4.6,-,N/A,,Overcast,330,2014-03-09 06:30:00
1:50 AM,34.9,28.0,76,30.14,10.0,NNW,6.9,-,N/A,,Overcast,340,2014-03-09 06:50:00
3:10 AM,34.2,26.6,74,30.15,10.0,NNW,8.1,-,N/A,,Overcast,340,2014-03-09 07:10:00
3:30 AM,33.8,26.6,75,30.16,10.0,NNW,8.1,-,N/A,,Overcast,340,2014-03-09 07:30:00
3:50 AM,33.3,26.4,76,30.15,10.0,North,6.9,-,N/A,,Overcast,350,2014-03-09 07:50:00
4:10 AM,33.1,26.6,77,30.16,10.0,NNW,6.9,-,N/A,,Overcast,340,2014-03-09 08:10:00
4:30 AM,32.9,26.8,78,30.16,10.0,North,3.5,-,N/A,,Overcast,360,2014-03-09 08:30:00
4:50 AM,32.9,26.8,78,30.16,10.0,North,3.5,-,N/A,,Overcast,350,2014-03-09 08:50:00
5:10 AM,32.7,26.6,78,30.17,10.0,North,5.8,-,N/A,,Overcast,350,2014-03-09 09:10:00
5:30 AM,32.5,26.4,78,30.17,10.0,NNW,5.8,-,N/A,,Overcast,340,2014-03-09 09:30:00
5:50 AM,32.4,24.6,73,30.18,10.0,NNW,8.1,-,N/A,,Overcast,330,2014-03-09 09:50:00
6:10 AM,32.2,23.7,71,30.19,10.0,NNW,5.8,-,N/A,,Overcast,330,2014-03-09 10:10:00
6:30 AM,32.0,23.9,72,30.20,10.0,North,4.6,-,N/A,,Overcast,360,2014-03-09 10:30:00
6:50 AM,32.0,24.3,73,30.20,10.0,NNW,5.8,-,N/A,,Overcast,340,2014-03-09 10:50:00
7:10 AM,32.0,23.4,70,30.20,10.0,NNW,3.5,-,N/A,,Overcast,340,2014-03-09 11:10:00
7:30 AM,32.0,23.7,71,30.21,10.0,Calm,Calm,-,N/A,,Overcast,0,2014-03-09 11:30:00
7:50 AM,32.0,23.2,70,30.22,10.0,NW,4.6,-,N/A,,Overcast,320,2014-03-09 11:50:00
8:10 AM,31.8,22.6,69,30.23,10.0,NW,5.8,-,N/A,,Overcast,320,2014-03-09 12:10:00
8:30 AM,31.8,22.1,67,30.24,10.0,WNW,3.5,-,N/A,,Overcast,290,2014-03-09 12:30:00
8:50 AM,32.0,22.1,67,30.25,10.0,NNW,3.5,-,N/A,,Overcast,340,2014-03-09 12:50:00
9:10 AM,32.0,21.9,66,30.25,10.0,Calm,Calm,-,N/A,,Overcast,0,2014-03-09 13:10:00
9:30 AM,32.0,22.3,67,30.25,10.0,Calm,Calm,-,N/A,,Overcast,0,2014-03-09 13:30:00
9:50 AM,32.0,22.1,67,30.25,10.0,Calm,Calm,-,N/A,,Overcast,0,2014-03-09 13:50:00
10:10 AM,32.2,21.9,66,30.24,10.0,Calm,Calm,-,N/A,,Overcast,0,2014-03-09 14:10:00
10:30 AM,32.7,21.6,64,30.24,10.0,Calm,Calm,-,N/A,,Overcast,0,2014-03-09 14:30:00
10:50 AM,33.8,22.6,64,30.25,10.0,West,4.6,-,N/A,,Overcast,260,2014-03-09 14:50:00
11:10 AM,35.6,23.2,61,30.24,10.0,NNW,3.5,-,N/A,,Overcast,330,2014-03-09 15:10:00
11:30 AM,34.0,21.9,61,30.24,10.0,Calm,Calm,-,N/A,,Overcast,0,2014-03-09 15:30:00
11:50 AM,34.9,22.3,60,30.25,10.0,WSW,3.5,-,N/A,,Scattered Clouds,250,2014-03-09 15:50:00
12:10 PM,37.6,23.5,57,30.24,10.0,West,5.8,-,N/A,,Scattered Clouds,260,2014-03-09 16:10:00
12:30 PM,36.5,22.5,57,30.23,10.0,WSW,3.5,-,N/A,,Scattered Clouds,240,2014-03-09 16:30:00
12:50 PM,38.3,22.5,53,30.23,10.0,West,6.9,-,N/A,,Scattered Clouds,270,2014-03-09 16:50:00
1:10 PM,39.4,21.6,49,30.21,10.0,Calm,Calm,-,N/A,,Scattered Clouds,0,2014-03-09 17:10:00
1:30 PM,39.6,21.0,48,30.19,10.0,Calm,Calm,-,N/A,,Clear,0,2014-03-09 17:30:00
1:50 PM,41.2,21.7,46,30.18,10.0,SW,3.5,-,N/A,,Clear,220,2014-03-09 17:50:00
2:10 PM,42.1,19.9,41,30.17,10.0,Calm,Calm,-,N/A,,Clear,0,2014-03-09 18:10:00
2:30 PM,42.8,20.8,42,30.16,10.0,Calm,Calm,-,N/A,,Clear,0,2014-03-09 18:30:00
2:50 PM,43.9,22.3,42,30.14,10.0,West,6.9,-,N/A,,Clear,280,2014-03-09 18:50:00
3:10 PM,44.2,22.5,42,30.14,10.0,WSW,6.9,-,N/A,,Clear,240,2014-03-09 19:10:00
3:30 PM,44.2,21.7,41,30.13,10.0,West,5.8,16.1,N/A,,Clear,270,2014-03-09 19:30:00
3:50 PM,44.8,21.9,40,30.11,10.0,West,8.1,-,N/A,,Clear,280,2014-03-09 19:50:00
4:10 PM,45.1,21.6,39,30.11,10.0,WSW,10.4,-,N/A,,Clear,240,2014-03-09 20:10:00
4:30 PM,44.8,21.7,40,30.11,10.0,West,5.8,-,N/A,,Clear,260,2014-03-09 20:30:00
4:50 PM,45.9,21.4,38,30.10,10.0,WSW,9.2,-,N/A,,Clear,250,2014-03-09 20:50:00
5:10 PM,44.6,20.1,38,30.09,10.0,WNW,4.6,-,N/A,,Clear,290,2014-03-09 21:10:00
5:30 PM,45.7,20.8,37,30.09,10.0,SW,5.8,-,N/A,,Clear,230,2014-03-09 21:30:00
5:50 PM,44.8,21.6,40,30.08,10.0,SW,6.9,-,N/A,,Clear,220,2014-03-09 21:50:00
6:10 PM,45.5,22.8,41,30.07,10.0,SW,9.2,-,N/A,,Clear,220,2014-03-09 22:10:00
6:30 PM,44.6,23.4,43,30.07,10.0,WSW,6.9,-,N/A,,Clear,240,2014-03-09 22:30:00
6:50 PM,43.9,23.4,44,30.07,10.0,SW,9.2,-,N/A,,Clear,230,2014-03-09 22:50:00
7:10 PM,43.2,22.8,45,30.07,10.0,SW,5.8,-,N/A,,Clear,230,2014-03-09 23:10:00
7:30 PM,42.1,23.0,47,30.07,10.0,SSW,4.6,-,N/A,,Clear,210,2014-03-09 23:30:00
7:50 PM,41.4,23.0,48,30.07,10.0,SW,3.5,-,N/A,,Clear,220,2014-03-09 23:50:00
8:10 PM,40.5,23.4,51,30.06,10.0,SSW,3.5,-,N/A,,Clear,200,2014-03-10 00:10:00
8:30 PM,38.8,24.6,57,30.06,10.0,South,4.6,-,N/A,,Clear,190,2014-03-10 00:30:00
8:50 PM,37.2,24.8,61,30.06,10.0,Calm,Calm,-,N/A,,Clear,0,2014-03-10 00:50:00
9:10 PM,37.0,24.8,61,30.06,10.0,Calm,Calm,-,N/A,,Clear,0,2014-03-10 01:10:00
9:30 PM,36.3,26.1,66,30.06,10.0,Calm,Calm,-,N/A,,Clear,0,2014-03-10 01:30:00
9:50 PM,36.7,25.3,64,30.06,10.0,Calm,Calm,-,N/A,,Clear,0,2014-03-10 01:50:00
10:10 PM,36.1,25.7,66,30.04,10.0,Calm,Calm,-,N/A,,Clear,0,2014-03-10 02:10:00
10:30 PM,36.3,26.2,67,30.05,10.0,Calm,Calm,-,N/A,,Clear,0,2014-03-10 02:30:00
10:50 PM,34.5,27.0,74,30.03,10.0,Calm,Calm,-,N/A,,Clear,0,2014-03-10 02:50:00
11:10 PM,36.3,24.8,63,30.02,10.0,South,3.5,-,N/A,,Clear,180,2014-03-10 03:10:00
11:30 PM,34.7,24.8,67,30.02,10.0,Calm,Calm,-,N/A,,Clear,0,2014-03-10 03:30:00
11:50 PM,34.3,24.8,68,30.01,10.0,SSW,4.6,-,N/A,,Clear,200,2014-03-10 03:50:00
12:10 AM,33.4,24.6,70,30.01,10.0,SSW,3.5,-,N/A,,Clear,200,2014-03-10 04:10:00
12:30 AM,33.4,25.3,72,30.01,10.0,Calm,Calm,-,N/A,,Clear,0,2014-03-10 04:30:00
12:50 AM,32.0,25.5,77,30.00,10.0,Calm,Calm,-,N/A,,Clear,0,2014-03-10 04:50:00